Welcome to the New NWS' Forecast!
Most changes are behind the scenes, but click here for differences you might notice.
Latest weather observations around

Mountain Home, Baxter County Regional Airport (KBPK)

Using English Units (Switch to International System of Units)
Date/ Time (CDT) Wind (mph) Vis. (mi) Weather Sky Cond. Temp (°F) Rel. Humidity Wind Chill (°F) Heat Index (°F) Pressure Precip. (in)
Air Dwpt 6 hour Altimeter (inHg) Sea level (inHg) 1 hr 3 hr 6 hr
Max Min
Notice The following observation data may not be complete
Sep 19 05:58   0.25 Fog VV002          %              
Sep 19 05:53 Calm 0.75 Fog/Mist VV002 64 64     100%     29.95 29.92      
Sep 19 05:48 SSE 3 2.5 Fog/Mist BKN002 64 64     100%     29.95        
Sep 19 05:42 Calm 1.75 Fog/Mist SCT002 64 64     100%     29.94        
Sep 19 05:18 Calm 1 Fog/Mist VV002 64 64     100%     29.94        
Sep 19 05:04 Calm 0.5 Fog VV002 65 65     100%     29.94        
Sep 19 04:53 Calm 0.75 Fog/Mist VV002 65 65     100%     29.93 29.91      
Sep 19 04:47 Calm 1 Fog/Mist VV002 64 64     100%     29.93        
Sep 19 04:33 Calm 2.5 Fog/Mist FEW003 65 65     100%     29.93        
Sep 19 04:16 Calm 1.75 Fog/Mist CLR 64 64     100%     29.92        
Sep 19 04:02 Calm 3 Fog/Mist CLR 64 64     100%     29.92        
Sep 19 03:57 Calm 1 Fog/Mist CLR 64 64     100%     29.92        
Sep 19 03:53 Calm 0.5 Fog CLR 64 64     100%     29.92 29.9      
Sep 19 03:49 Calm 0.5 Fog CLR 64 64     100%     29.92        
Sep 19 03:32 Calm 0.75 Fog/Mist CLR 65 65     100%     29.92        
Sep 19 03:13 Calm 0.5 Fog CLR 65 65     100%     29.92        
Sep 19 02:53 Calm 1.25 Fog/Mist FEW002 64 64     100%     29.92 29.9      
Sep 19 02:49 Calm 0.75 Fog/Mist VV002 64 64     100%     29.92        
Sep 19 02:33 Calm 0.25 Fog VV002 67 67     100%     29.93        
Sep 19 02:05 Calm 0.5 Fog VV002 65 65     100%     29.93        
Sep 19 01:53 Calm 0.75 Fog/Mist VV002 66 66     100%     29.93 29.9      
Sep 19 01:43 Calm 0.75 Fog/Mist VV002 66 66     100%     29.93        
Sep 19 01:18 Calm 0.25 Fog VV002 67 67     100%     29.93        
Sep 19 01:11 Calm 0.5 Fog CLR 67 67     100%     29.93        
Sep 19 01:01 Calm 0.5 Fog VV002 67 67     100%     29.93        
Sep 19 00:53 Calm 0.5 Fog CLR 68 68     100%     29.94 29.91      
Sep 19 00:19 Calm 6 Fog/Mist CLR 69 69     100%     29.95        
Sep 18 23:53 Calm 2.5 Fog/Mist CLR 68 68     100%     29.96 29.93      
Sep 18 23:28 Calm 1.75 Fog/Mist CLR 68 68     100%     29.96        
Sep 18 23:24 Calm 3 Fog/Mist CLR 69 69     100%     29.97        
Sep 18 23:14 Calm 1.75 Fog/Mist CLR 69 69     100%     29.97        
Sep 18 22:53 Calm 6 Fog/Mist CLR 69 69     100%     29.97 29.95      
Sep 18 21:53 Calm 10 Clear CLR 71 71     100%   73 29.98 29.96      
Sep 18 21:34 SE 3 8 Partly Cloudy SCT021 70 70     100%     29.98        
Sep 18 21:26 Calm 5 Fog/Mist BKN021 70 70     100%     29.98        
Sep 18 20:53 Calm 6 Fog/Mist CLR 70 70     100%     29.98 29.96      
Sep 18 19:53 Calm 9 Clear CLR 70 70     100%     29.96 29.93      
Sep 18 18:53 Calm 10 Clear   73 72     96%   75 29.95 29.92      
Sep 18 17:53 Calm 10 Clear CLR 76 74     94%   78 29.95 29.93 0    
Sep 18 17:43 Calm 10 Mostly Clear FEW100 75 74     96%   77 29.95   0    
Sep 18 17:36 SSE 5 10 Partly Cloudy SCT100 75 73     94%   77 29.95   0    
Sep 18 17:27 Calm 10 Mostly Cloudy BKN100 74 73     97%   76 29.95   0    
Sep 18 16:53 Calm 4 Thunderstorms and Rain and Fog/Mist FEW041 BKN095 OVC110 73 73     100%   75 29.97 29.94 0    
Sep 18 16:48 Calm 8 Thunderstorms and Rain FEW055 BKN090 OVC110 73 72     94%   75 29.97   0    
Sep 18 16:28 Calm 8 Light Rain FEW055 BKN095 BKN120 76 71     85%   77 29.97   0    
Sep 18 15:53 ENE 3 10 Clear CLR 78 70     76%   79 29.96 29.93   0  
Sep 18 14:53 Calm 10 Cloudy FEW042 BKN080 OVC090 75 71     88%   76 29.99 29.96 0    
Sep 18 14:24 S 6 8 Light Rain FEW022 BKN085 OVC120 75 67     76%   76 30.02   0    
Sep 18 13:39 Calm 10 Cloudy FEW049 OVC085 78 69     74%   79 30.03        
Sep 18 12:53 7 10 Cloudy BKN049 OVC065 77 71     82%   78 30.05 30.02     0
Sep 18 11:53 SE 6 10 Cloudy SCT065 BKN080 OVC110 75 69     82%   76 30.06 30.03 0    
Sep 18 10:53 ESE 5 10 Mostly Cloudy FEW049 BKN110 73 68     84%   74 30.07 30.04      
Sep 18 10:32 E 3 10 Mostly Cloudy SCT038 BKN049 BKN110 71 68     90%   72 30.07        
Sep 18 10:01 Calm 10 Cloudy SCT029 BKN035 OVC050 71 68     90%   72 30.07        
Sep 18 09:53 Calm 10 Thunderstorms FEW019 BKN027 OVC050 70 67     90%     30.07 30.05   0  
Sep 18 09:51 Calm 10 Thunderstorms FEW017 BKN027 OVC050 70 66     88%     30.07        
Sep 18 09:43 Calm 10 Thunderstorms SCT017 BKN050 OVC100 69 67     93%     30.07        
Sep 18 09:30 Calm 4 Thunderstorms and Fog/Mist SCT017 BKN027 OVC060 68 66     93%     30.08        
Sep 18 09:19 NNW 3 10 Thunderstorms SCT015 BKN060 OVC100 67 66     97%     30.07        
Sep 18 09:14 3 10 Cloudy FEW015 BKN060 OVC110 67 66     97%     30.08        
Sep 18 08:53 W 3 10 Cloudy FEW060 OVC095 67 66     97%     30.06 30.03 0    
Sep 18 07:53 Calm 10 Cloudy OVC100 66 65     96%     30.05 30.03      
Sep 18 03:53 Calm 10 Cloudy OVC100 66 65     96%     30.05 30.03      
Sep 18 02:53 Calm 10 Clear CLR 64 64     100%     30.05 30.02      
Sep 18 01:53 Calm 10 Clear CLR 66 64     93%     30.04 30.01      
Sep 18 00:53 Calm 10 Clear CLR 65 64     97%     30.06 30.03     0
Sep 17 23:53 Calm 10 Clear CLR 68 65     90%     30.06 30.03      
Sep 17 22:53 Calm 10 Clear CLR 69 64     84%     30.06 30.03      
Sep 17 20:53 Calm 10 Clear CLR 69 64     84%     30.08 30.06      
Sep 17 19:53 Calm 10 Clear CLR 70 64     81%     30.08 30.06 0    
Sep 17 18:53 NNE 3 10 Partly Cloudy FEW095 SCT120 72 64     76%   72 30.07 30.05 0   0
Sep 17 17:53 Calm 10 Light Rain FEW075 BKN110 75 63     66%   75 30.04 30.01 0    
Sep 17 16:53 S 5 10 Light Rain FEW110 76 61     60%   76 30.06 30.03 0    
Sep 17 15:53 6 10 Clear CLR 77 61     58%   77 30.09 30.06      
Sep 17 14:53 5 10 Partly Cloudy SCT095 79 62     56%   79 30.11 30.08      
Sep 17 13:53 NE 8 10 Mostly Cloudy BKN043 81 65     58%   83 30.13 30.09      
Sep 17 12:53 7 10 Mostly Cloudy BKN038 81 68     65%   84 30.14 30.1      
Sep 17 11:53 NW 3 10 Mostly Cloudy SCT060 BKN080 80 70     71%   83 30.13 30.1      
Sep 17 10:53 Calm 10 Clear CLR 81 70     69%   84 30.13 30.1      
Sep 17 09:53 Calm 10 Clear CLR 80 70     71%   83 30.13 30.09      
Sep 17 08:53 Calm 10 Clear CLR 73 69     87%   74 30.11 30.08      
Sep 17 07:53 E 3 10 Clear CLR 70 68     93%     30.08 30.06      
Sep 17 06:53 Calm 8 Clear CLR 66 66     100%     30.06 30.03      
Sep 17 05:53 Calm 10 Clear CLR 67 67     100%     30.04 30.01      
Sep 17 04:53 Calm 10 Clear CLR 69 67     93%     30.04 30.01      
Sep 17 03:53 SSW 5 10 Clear CLR 69 67     93%     30.03 29.99      
Sep 17 01:53 SSE 3 10 Clear CLR 70 66     87%     30.04 30.01      
Sep 17 00:53 Calm 10 Clear CLR 70 65     84%     30.05 30.02      
Sep 16 23:53 Calm 10 Clear CLR 71 65     81%   72 30.07 30.03      
Sep 16 22:53 ENE 3 10 Clear CLR 73 64     73%   73 30.07 30.03      
Sep 16 21:53 Calm 10 Mostly Clear FEW003 71 64     79%   72 30.06 30.02      
Sep 16 21:21 Calm 10 Mostly Clear FEW002 74 64     71%   74 30.04        
Sep 16 20:53 Calm 10 Clear CLR 75 64     69%   75 30.03 30.01      
Sep 16 19:53 Calm 10 Clear CLR 78 63     60%   78 30.01 29.98      
Sep 16 18:53 SSW 3 10 Clear CLR 81 63     54%   82 29.99 29.96      
Sep 16 17:53 SSW 7 10 Clear CLR 86 62     45%   87 29.98 29.95      
Sep 16 16:53 6 10 Clear CLR 87 62     43%   88 29.98 29.95      
Sep 16 15:53 SW 6 10 Clear CLR 86 62     45%   87 30 29.97      
Sep 16 14:53 7 10 Partly Cloudy SCT060 89 63     42%   90 30.01 29.98      
Sep 16 13:53 SW 10 10 Clear CLR 87 65     48%   89 30.03 29.99      
Sep 16 11:53 SSW 9 10 Mostly Cloudy BKN039 BKN047 84 67     57%   87 30.06 30.03      
Sep 16 10:53 S 9 10 Clear CLR 81 68     65%   84 30.08 30.05      
Sep 16 09:53 SSW 6 10 Clear CLR 78 67     69%   79 30.08 30.05      
Sep 16 08:53 SSE 3 9 Partly Cloudy SCT050 72 67     84%   73 30.07 30.04      
Sep 16 07:53 Calm 6 Fog/Mist FEW044 68 66     93%     30.07 30.04      
Sep 16 06:53 Calm 7 Mostly Cloudy BKN042 66 65     96%     30.05 30.02      
Sep 16 05:53 Calm 7 Clear CLR 66 65     96%     30.02 29.99      
Sep 16 04:53 Calm 8 Clear CLR 65 65     100%     30.01 29.98      
Sep 16 03:53 SSE 3 9 Clear CLR 67 65     93%     30 29.97      
Jun 08 22:53 Calm 10 Clear CLR 64 47     54%     29.96 29.93      
Jun 08 19:53 Calm 10 Clear CLR 68 55     63%     29.95 29.93      
Notice The following observation data may not be complete
Jun 07 19:53 Calm 10 Clear CLR   51      %     30 29.98      
Jun 07 13:53 3 10 Clear CLR 78 46     32%   77 30.03 30.01      
Jun 07 10:53 5 10 Clear CLR 73 55     53%   73 30.06 30.03      
Jun 06 11:53 6 10 Clear CLR 80 65     60%   82 29.9 29.87      
Jun 06 09:53 Calm 10 Clear CLR 75 65     71%   76 29.9 29.87